Tracking 29487 objects as of 12-Sep-2024
HD Live streaming from Space Station
objects crossing your sky now

ION SCV-007

Track ION SCV-007 now!
10-day predictions
ION SCV-007 is classified as:


NORAD ID: 55060
Int'l Code: 2023-001BD
Perigee: 640.4 km
Apogee: 656.4 km
Inclination: 98.0 °
Period: 97.5 minutes
Semi major axis: 7019 km
RCS: Unknown
Launch date: January 3, 2023
Source: Italy (IT)
Launch site: AIR FORCE EASTERN TEST RANGE (AFETR)

Uplink (MHz):
Downlink (MHz): 401.415
Beacon (MHz):
Mode: 1200bps FSK
Call sign:
Status: Active

Your satellite tracking list
Your tracking list is empty




NASA's NSSDC Master Catalog

Two Line Element Set (TLE):
1 55060U 23001BD  24255.56489382  .00002397  00000-0  35349-3 0  9993
2 55060  97.9900 317.4468 0011358 249.7809 110.2179 14.76220303 91247
Source of the keplerian elements: AFSPC